Weather Service Report


122 
ASUS44 KLZK 300905
RWRLZK

WEATHER ROUNDUP FOR ARKANSAS
NATIONAL WEATHER SERVICE LITTLE ROCK AR
400 AM CDT TUE SEP 30 2014

NOTE: "FAIR" INDICATES FEW OR NO CLOUDS BELOW 12,000 FEET WITH NO
SIGNIFICANT WEATHER AND/OR OBSTRUCTIONS TO VISIBILITY.

ARZ001-003-010-029-301000-
NORTHWEST ARKANSAS
  
CITY           SKY/WX    TMP DP  RH WIND       PRES   REMARKS
FAYETTEVILLE   CLEAR     55  55 100 CALM      29.99S                  
FORT SMITH     CLEAR     65  61  87 NE5       29.94F                  
HARRISON       CLEAR     58  58 100 W5        29.99S                  
BENTONVILLE    CLEAR     61  57  88 CALM      29.99S                  
ROGERS         CLEAR     61  58  90 CALM      29.99F                  
SILOAM SPGS    CLEAR     61  54  77 E5        29.99S                  
HIGHFILL       CLEAR     58  57  97 CALM      29.98S                  
$$

ARZ004-005-016-301000-
NORTH CENTRAL ARKANSAS
  
CITY           SKY/WX    TMP DP  RH WIND       PRES   REMARKS
BATESVILLE     CLEAR     59  55  88 NW6       29.95R                  
FLIPPIN        CLEAR     59  54  82 CALM      29.98R                  
MTN HOME       CLEAR     61  58  90 CALM      29.97R                  
$$

ARZ040-041-301000-
WEST CENTRAL ARKANSAS
  
CITY           SKY/WX    TMP DP  RH WIND       PRES   REMARKS
MENA             N/A     59  55  88 CALM      29.97S                  
MOUNT IDA      CLEAR     59  57  93 CALM      29.94R FOG              
$$

ARZ009-017-025-026-028-301000-
NORTHEAST ARKANSAS
  
CITY           SKY/WX    TMP DP  RH WIND       PRES   REMARKS
CORNING          N/A     57  55  94 N3        29.95S                  
JONESBORO      CLEAR     58  56  93 CALM      29.93S                  
NEWPORT        CLOUDY    59  57  92 N3        29.95S FOG              
WALNUT RIDGE   CLEAR     59  55  88 N5        29.94S                  
BLYTHEVILLE    CLEAR     59  56  89 NE5       29.93F                  
$$

ARZ022-023-033-042-044-301000-
CENTRAL ARKANSAS
  
CITY           SKY/WX    TMP DP  RH WIND       PRES   REMARKS
LITTLE ROCK    CLEAR     66  60  81 CALM      29.94R                  
N LITTLE ROCK    N/A     66  59  80 CALM      29.94R                  
JACKSONVILLE   CLEAR     59  57  91 CALM      29.94R                  
SEARCY         CLEAR     59  56  89 NW3       29.95R                  
HOT SPRINGS    CLEAR     61  58  90 CALM      29.95R                  
RUSSELLVILLE   CLEAR     61  59  93 CALM      29.95R                  
CLINTON        FAIR      57  57 100 CALM      29.97R FOG              
$$

ARZ036-301000-
EAST ARKANSAS
  
CITY           SKY/WX    TMP DP  RH WIND       PRES   REMARKS
WEST MEMPHIS   CLEAR     61  60  97 CALM      29.91F                  
$$

ARZ050-053-066-070-073-301000-
SOUTHWEST ARKANSAS
  
CITY           SKY/WX    TMP DP  RH WIND       PRES   REMARKS
ARKADELPHIA    FAIR      60  60 100 SW3       29.94R FOG              
CAMDEN         FOG       59  57  94 CALM      29.91S VSB 1            
TEXARKANA      CLOUDY    69  64  84 NE3       29.92R                  
EL DORADO      CLEAR     63  61  93 CALM      29.91S                  
DE QUEEN       FOG       61  61 100 CALM      29.91S VSB 1/2          
$$

ARZ056-057-069-301000-
SOUTHEAST ARKANSAS
  
CITY           SKY/WX    TMP DP  RH WIND       PRES   REMARKS
PINE BLUFF     CLEAR     62  59  90 CALM      29.92F                  
STUTTGART      CLEAR     63  57  82 CALM      29.93S                  
MONTICELLO     CLEAR     62  59  90 CALM      29.91F FOG              

$$



Return to Home page


Western Regional Climate Center, wrcc@dri.edu